User: anonymous   Login
Location: Dampvalley
(47.9094°N, 6.1967°E)
Time: 01:58:33
(UTC+00:00)
Language:

AO-91 - Orbit

View from above orbital plane
View from above orbital plane
View from above satellite
View from above satellite

Ground track
Ground track

The orbit data is extracted from the following two-line orbital elements,

1 43017U 17073E   21332.51820501  .00001068  00000-0  85964-4 0  9997
2 43017  97.6923 229.8898 0254685 124.6631 237.8874 14.79971871217386
Epoch (UTC): 28 November 2021 12:26:12
Eccentricity: 0.0254685
inclination: 97.6923°
perigee height: 451 km
apogee height: 808 km
right ascension of ascending node: 229.8898°
argument of perigee: 124.6631°
revolutions per day: 14.79971871
mean anomaly at epoch: 237.8874°
orbit number at epoch: 21738

The dashed part of the orbit path shows where the satellite is in the earth's shadow,  

DLR